Location: PACMO
(41.3967°N, 90.3760°W)
Time: 20:44:58
(UTC-05:00)

Amateur Radio Satellites - All Passes

Search period start: 18 September 2014 20:14
Search period end: 19 September 2014 20:14
Location: PACMO, 41.3967°N, 90.3760°W

Satellite Date Start Highest point End Downlink Frequencies (MHz)
Time Altitude Azimuth
UKube-1 18 Sep 20:21:15 20:22:50 12° 61° (ENE) 20:24:24 145.840 MHz, 145.915 MHz
PCSat 18 Sep 20:23:32 20:27:10 18° 42° (NE) 20:30:46 145.825 MHz
HO-68 18 Sep 20:24:38 20:31:20 46° 65° (ENE) 20:38:03 435.675 MHz FM
KITSAT 1 18 Sep 21:12:59 21:20:43 47° 310° (NW) 21:28:30 435.175 FM
FUNcube-1 18 Sep 21:27:09 21:30:01 17° 64° (ENE) 21:32:56 145.950 - 145.970 MHz USB
STRAND 1 18 Sep 21:34:09 21:36:53 15° 300° (WNW) 21:39:36 ?
Oscar 11 18 Sep 21:38:28 21:42:42 53° 73° (ENE) 21:46:58 145.825 FM, Beacon 2401.500 USB
Sapphire 18 Sep 21:38:42 21:44:03 55° 57° (ENE) 21:49:22 437.095 MHz 1200 baud AX-25 AFSK
UKube-1 18 Sep 21:54:08 21:58:26 70° 258° (WSW) 22:02:47 145.840 MHz, 145.915 MHz
PCSat 18 Sep 22:05:49 22:11:17 84° 242° (WSW) 22:16:42 145.825 MHz
HO-68 18 Sep 22:12:45 22:19:07 35° 263° (W) 22:25:33 435.675 MHz FM
SO-50 18 Sep 22:14:14 22:18:00 27° 113° (ESE) 22:21:52 436.795 FM
FUNcube-1 18 Sep 23:01:47 23:06:00 47° 261° (W) 23:10:22 145.950 - 145.970 MHz USB
KITSAT 1 18 Sep 23:13:50 23:18:27 16° 336° (NNW) 23:23:05 435.175 FM
Oscar 11 18 Sep 23:16:58 23:19:12 14° 269° (W) 23:21:27 145.825 FM, Beacon 2401.500 USB
Sapphire 18 Sep 23:23:04 23:27:02 21° 254° (WSW) 23:30:59 437.095 MHz 1200 baud AX-25 AFSK
PCSat 18 Sep 23:52:48 23:53:48 11° 259° (W) 23:54:48 145.825 MHz
SO-50 18 Sep 23:54:19 23:58:26 35° 311° (NW) 00:02:40 436.795 FM
UOSAT-12 18 Sep 23:57:08 00:00:56 26° 112° (ESE) 00:04:47 437.025 FM, 437.400 FM
AO-40 19 Sep 00:50:15 02:05:48 17° 232° (SW) 04:07:09 Beacon 2401.320
KITSAT 1 19 Sep 01:15:54 01:18:10 11° 7° (N) 01:20:26 435.175 FM
Saudisat 1A 19 Sep 01:21:50 01:25:11 21° 43° (NE) 01:28:31 436.775 MHz
UOSAT-12 19 Sep 01:36:33 01:40:53 39° 310° (NW) 01:45:19 437.025 FM, 437.400 FM
Oscar 16 19 Sep 01:39:23 01:43:19 22° 93° (E) 01:47:13 437.025 USB, Beacon 2401.1428
AO-Echo 19 Sep 01:59:28 02:02:15 15° 92° (E) 02:05:04 ?
ITAMSAT 1 19 Sep 02:21:04 02:25:04 22° 94° (E) 02:29:03 435.822 SSB
JAS-1B 19 Sep 02:24:47 02:29:37 27° 95° (E) 02:34:25 435.800 - 435.900 CW/SSB
Oscar 10/S400 19 Sep 02:25:14 03:34:35 33° 234° (SW) 07:42:55 145.825 - 145.975 CW/USB, Beacon 145.810 USB
Uribyol 2 19 Sep 02:25:15 02:29:34 26° 95° (E) 02:33:52 436.500 FM
Oscar 19 19 Sep 02:39:01 02:44:13 77° 103° (ESE) 02:49:21 437.125 CW, 437.150 USB
TMSAT-1 19 Sep 02:43:45 02:45:50 12° 89° (E) 02:47:54 436.925 FM
RS-15 19 Sep 02:52:40 02:59:15 18° 99° (E) 03:05:44 29.354 - 29.394 USB, Beacon 29.352 USB
AO-27 19 Sep 02:55:08 03:00:10 46° 99° (E) 03:05:10 436.795 MHz FM
Saudisat 1A 19 Sep 03:00:45 03:05:03 52° 242° (WSW) 03:09:19 436.775 MHz
ISS 19 Sep 03:01:19 03:04:29 44° 139° (SE) 03:07:41 145.800 FM
KITSAT 1 19 Sep 03:10:44 03:17:10 25° 37° (NE) 03:23:34 435.175 FM
OPAL 19 Sep 03:15:06 03:17:23 13° 56° (NE) 03:19:41 ?
Oscar 16 19 Sep 03:17:56 03:22:52 46° 290° (WNW) 03:27:46 437.025 USB, Beacon 2401.1428
PANSAT 19 Sep 03:21:49 03:23:06 11° 175° (S) 03:24:22 not established
AO-Echo 19 Sep 03:36:37 03:41:22 59° 287° (WNW) 03:46:15 ?
Gurwin Techsat 1B 19 Sep 03:43:31 03:48:49 63° 101° (ESE) 03:54:04 435.225 FM
ITAMSAT 1 19 Sep 03:59:48 04:04:45 46° 290° (WNW) 04:09:43 435.822 SSB
Uribyol 2 19 Sep 04:04:17 04:09:08 39° 291° (WNW) 04:13:57 436.500 FM
JAS-1B 19 Sep 04:15:12 04:20:28 37° 293° (WNW) 04:25:38 435.800 - 435.900 CW/SSB
Oscar 19 19 Sep 04:20:12 04:22:54 14° 300° (WNW) 04:25:34 437.125 CW, 437.150 USB
TMSAT-1 19 Sep 04:21:02 04:26:21 81° 285° (WNW) 04:31:39 436.925 FM
AO-7 19 Sep 04:31:37 04:38:53 33° 97° (E) 04:46:05 29.400 - 29.500 MHz
AO-27 19 Sep 04:35:21 04:39:21 23° 296° (WNW) 04:43:21 436.795 MHz FM
ISS 19 Sep 04:38:21 04:41:18 28° 336° (NNW) 04:44:15 145.800 FM
Uosat F 19 Sep 04:46:21 04:50:47 30° 96° (E) 04:55:11 435.120 FM
OPAL 19 Sep 04:50:18 04:55:29 90° 86° (E) 05:00:44 ?
RS-15 19 Sep 04:58:42 05:09:45 81° 119° (ESE) 05:20:41 29.354 - 29.394 USB, Beacon 29.352 USB
PANSAT 19 Sep 05:01:47 05:02:28 10° 188° (S) 05:03:08 not established
KITSAT 1 19 Sep 05:05:36 05:13:44 88° 60° (ENE) 05:21:48 435.175 FM
Gurwin Techsat 1B 19 Sep 05:24:47 05:28:15 18° 298° (WNW) 05:31:43 435.225 FM
STRAND 1 19 Sep 05:33:12 05:35:48 14° 60° (ENE) 05:38:25 ?
JAS-2 19 Sep 05:40:10 05:44:29 20° 93° (E) 05:49:07 435.800 - 435.900 CW/SSB, 435.910 FM
TMSAT-1 19 Sep 06:03:52 06:05:24 11° 303° (WNW) 06:06:56 436.925 FM
ISS 19 Sep 06:16:55 06:18:50 14° 356° (N) 06:20:46 145.800 FM
Hamsat 19 Sep 06:19:15 06:22:59 29° 96° (E) 06:26:39 145.90 MHz
AO-7 19 Sep 06:23:56 06:31:58 57° 295° (WNW) 06:39:59 29.400 - 29.500 MHz
Uosat F 19 Sep 06:25:06 06:29:31 32° 293° (WNW) 06:33:55 435.120 FM
OPAL 19 Sep 06:34:00 06:35:02 11° 270° (W) 06:36:04 ?
SO-50 19 Sep 06:45:06 06:49:21 30° 47° (NE) 06:53:37 436.795 FM
KITSAT 1 19 Sep 07:02:49 07:08:04 19° 258° (WSW) 07:13:18 435.175 FM
STRAND 1 19 Sep 07:09:16 07:14:20 76° 257° (WSW) 07:19:27 ?
RS-15 19 Sep 07:13:35 07:23:19 35° 325° (NW) 07:33:06 29.354 - 29.394 USB, Beacon 29.352 USB
JAS-2 19 Sep 07:23:56 07:29:51 67° 287° (WNW) 07:36:33 435.800 - 435.900 CW/SSB, 435.910 FM
MaSat-1 19 Sep 07:49:09 07:52:47 21° 104° (ESE) 07:56:25 437.345 MHz
ISS 19 Sep 07:54:00 07:56:31 20° 17° (NNE) 07:59:02 145.800 FM
Hamsat 19 Sep 07:55:24 07:58:49 24° 292° (WNW) 08:02:11 145.90 MHz
SO-67 19 Sep 08:12:03 08:15:31 86° 102° (ESE) 08:18:58 435.3500 MHz FM
AO-7 19 Sep 08:19:34 08:22:59 13° 316° (NW) 08:26:24 29.400 - 29.500 MHz
SO-50 19 Sep 08:25:32 08:29:58 38° 244° (WSW) 08:34:27 436.795 FM
UOSAT-12 19 Sep 08:26:08 08:30:09 26° 45° (NE) 08:34:06 437.025 FM, 437.400 FM
JAS-2 19 Sep 09:12:49 09:14:04 11° 303° (WNW) 09:15:21 435.800 - 435.900 CW/SSB, 435.910 FM
MaSat-1 19 Sep 09:24:19 09:29:13 51° 300° (WNW) 09:34:02 437.345 MHz
ISS 19 Sep 09:30:18 09:33:38 82° 35° (NE) 09:36:58 145.800 FM
RS-15 19 Sep 09:32:42 09:40:18 20° 359° (N) 09:48:00 29.354 - 29.394 USB, Beacon 29.352 USB
HO-68 19 Sep 09:39:21 09:46:13 46° 100° (E) 09:53:02 435.675 MHz FM
UKube-1 19 Sep 09:43:08 09:46:17 19° 94° (E) 09:49:26 145.840 MHz, 145.915 MHz
UOSAT-12 19 Sep 10:05:59 10:10:27 42° 244° (WSW) 10:14:49 437.025 FM, 437.400 FM
FUNcube-1 19 Sep 10:50:53 10:55:06 34° 96° (E) 10:59:15 145.950 - 145.970 MHz USB
Oscar 11 19 Sep 11:02:00 11:06:21 75° 285° (WNW) 11:10:40 145.825 FM, Beacon 2401.500 USB
PCSat 19 Sep 11:08:26 11:10:11 12° 102° (ESE) 11:11:55 145.825 MHz
ISS 19 Sep 11:08:43 11:09:54 12° 231° (SW) 11:11:04 145.800 FM
UKube-1 19 Sep 11:18:34 11:22:36 38° 290° (WNW) 11:26:37 145.840 MHz, 145.915 MHz
HO-68 19 Sep 11:27:21 11:33:43 36° 298° (WNW) 11:40:04 435.675 MHz FM
RS-15 19 Sep 11:47:39 11:57:24 34° 34° (NE) 12:07:24 29.354 - 29.394 USB, Beacon 29.352 USB
Oscar 19 19 Sep 12:19:35 12:22:25 15° 60° (ENE) 12:25:15 437.125 CW, 437.150 USB
Sapphire 19 Sep 12:20:33 12:25:43 50° 113° (ESE) 12:30:57 437.095 MHz 1200 baud AX-25 AFSK
FUNcube-1 19 Sep 12:27:34 12:31:18 25° 293° (WNW) 12:35:00 145.950 - 145.970 MHz USB
PCSat 19 Sep 12:47:20 12:52:45 90° 123° (ESE) 12:58:12 145.825 MHz
Oscar 16 19 Sep 12:56:14 13:00:48 32° 67° (ENE) 13:05:23 437.025 USB, Beacon 2401.1428
Oscar 10/S400 19 Sep 13:07:06 13:10:36 10° 153° (SSE) 13:13:48 145.825 - 145.975 CW/USB, Beacon 145.810 USB
JAS-1B 19 Sep 13:08:33 13:15:49 34° 65° (ENE) 13:22:06 435.800 - 435.900 CW/SSB
AO-Echo 19 Sep 13:12:46 13:16:10 20° 65° (ENE) 13:19:33 ?
Gurwin Techsat 1B 19 Sep 13:28:15 13:30:48 14° 59° (ENE) 13:33:21 435.225 FM
ITAMSAT 1 19 Sep 13:39:04 13:43:39 34° 68° (ENE) 13:48:17 435.822 SSB
Uribyol 2 19 Sep 13:43:08 13:47:53 39° 69° (ENE) 13:52:41 436.500 FM
AO-7 19 Sep 13:46:28 13:47:37 10° 40° (NE) 13:48:46 29.400 - 29.500 MHz
Oscar 19 19 Sep 13:55:55 14:01:06 75° 257° (WSW) 14:06:20 437.125 CW, 437.150 USB
RS-15 19 Sep 14:00:01 14:11:11 86° 240° (WSW) 14:22:48 29.354 - 29.394 USB, Beacon 29.352 USB
TMSAT-1 19 Sep 14:03:52 14:07:45 21° 63° (ENE) 14:11:37 436.925 FM
Sapphire 19 Sep 14:04:53 14:09:24 26° 312° (NW) 14:13:57 437.095 MHz 1200 baud AX-25 AFSK
AO-27 19 Sep 14:13:21 14:18:29 72° 74° (ENE) 14:23:40 436.795 MHz FM
PCSat 19 Sep 14:33:29 14:36:56 17° 319° (NW) 14:40:23 145.825 MHz
Oscar 16 19 Sep 14:35:31 14:40:06 31° 264° (W) 14:44:43 437.025 USB, Beacon 2401.1428
AO-Echo 19 Sep 14:50:07 14:54:39 44° 261° (W) 14:59:08 ?
JAS-1B 19 Sep 14:57:41 15:06:11 54° 259° (W) 15:13:21 435.800 - 435.900 CW/SSB
Gurwin Techsat 1B 19 Sep 15:04:44 15:10:02 84° 256° (WSW) 15:15:23 435.225 FM
ITAMSAT 1 19 Sep 15:18:40 15:23:08 30° 264° (W) 15:27:39 435.822 SSB
Uribyol 2 19 Sep 15:23:13 15:27:27 25° 265° (W) 15:31:44 436.500 FM
AO-7 19 Sep 15:30:32 15:38:18 46° 62° (ENE) 15:46:03 29.400 - 29.500 MHz
TMSAT-1 19 Sep 15:42:08 15:47:16 52° 260° (W) 15:52:27 436.925 FM
AO-27 19 Sep 15:56:00 15:58:31 14° 270° (W) 16:01:03 436.795 MHz FM
Uosat F 19 Sep 15:59:39 16:04:20 43° 70° (ENE) 16:09:03 435.120 FM
RS-15 19 Sep 16:14:28 16:21:56 21° 260° (W) 16:29:39 29.354 - 29.394 USB, Beacon 29.352 USB
OPAL 19 Sep 17:01:01 17:05:06 23° 96° (E) 17:09:07 ?
Saudisat 1A 19 Sep 17:07:10 17:11:15 39° 116° (ESE) 17:15:21 436.775 MHz
Hamsat 19 Sep 17:12:55 17:16:19 23° 68° (ENE) 17:19:44 145.90 MHz
AO-7 19 Sep 17:23:23 17:31:06 42° 261° (W) 17:38:51 29.400 - 29.500 MHz
JAS-2 19 Sep 17:37:18 17:42:22 50° 71° (ENE) 17:47:21 435.800 - 435.900 CW/SSB, 435.910 FM
Uosat F 19 Sep 17:39:28 17:43:17 22° 266° (W) 17:47:08 435.120 FM
MaSat-1 19 Sep 17:41:19 17:44:49 31° 55° (NE) 17:47:52 437.345 MHz
OPAL 19 Sep 18:39:15 18:44:08 43° 293° (WNW) 18:48:56 ?
SO-67 19 Sep 18:45:16 18:48:13 27° 71° (ENE) 18:51:11 435.3500 MHz FM
Saudisat 1A 19 Sep 18:47:16 18:50:56 25° 314° (NW) 18:54:38 436.775 MHz
Hamsat 19 Sep 18:48:10 18:52:06 33° 264° (W) 18:56:02 145.90 MHz
MaSat-1 19 Sep 19:18:54 19:21:09 16° 258° (WSW) 19:23:13 437.345 MHz
STRAND 1 19 Sep 19:20:00 19:24:43 36° 97° (E) 19:29:26 ?
JAS-2 19 Sep 19:24:16 19:27:49 18° 268° (W) 19:31:21 435.800 - 435.900 CW/SSB, 435.910 FM
KITSAT 1 19 Sep 19:33:23 19:41:18 62° 115° (ESE) 19:49:15 435.175 FM
PCSat 19 Sep 19:53:30 19:56:18 14° 39° (NE) 19:59:07 145.825 MHz
